When you browse on this site, cookies collect data to enhance your experience and personalize the content and advertising you see.
Visit our Privacy Policy to learn more. By continuing to use the site, you agree to this use of cookies and data.
  • In Czech Republic
  • List of Countries
  • For 7 days
  • Water Temperature
  • Satellite Maps
  • Weather Map
  • Weather Widgets
  • user-avatar
    Login

    Hourly Weather Brikama

    Today, 13 December, Thursday

    Time Temperature Precipitation Wind Pressure Humidity
    00:00 +25°C° 0 mm 5 mps 757 mmHg 40%
    01:00 +25°C° 0 mm 5 mps 757 mmHg 38%
    02:00 +25°C° 0 mm 4 mps 757 mmHg 36%
    03:00 +23°C° 0 mm 4 mps 757 mmHg 31%
    04:00 +23°C° 0 mm 4 mps 757 mmHg 27%
    05:00 +23°C° 0 mm 4 mps 757 mmHg 23%
    06:00 +23°C° 0 mm 5 mps 757 mmHg 21%
    07:00 +25°C° 0 mm 5 mps 757 mmHg 18%
    08:00 +26°C° 0 mm 5 mps 758 mmHg 16%
    09:00 +29°C° 0 mm 5 mps 758 mmHg 14%
    10:00 +33°C° 0 mm 5 mps 758 mmHg 13%
    11:00 +36°C° 0 mm 4 mps 758 mmHg 12%
    12:00 +37°C° 0 mm 4 mps 757 mmHg 13%
    13:00 +38°C° 0 mm 3 mps 757 mmHg 13%
    14:00 +39°C° 0 mm 2 mps 756 mmHg 14%
    15:00 +38°C° 0 mm 2 mps 756 mmHg 16%
    16:00 +37°C° 0 mm 3 mps 756 mmHg 18%
    17:00 +36°C° 0 mm 3 mps 756 mmHg 20%
    18:00 +34°C° 0 mm 3 mps 756 mmHg 26%
    19:00 +31°C° 0 mm 3 mps 757 mmHg 32%
    20:00 +29°C° 0 mm 4 mps 757 mmHg 38%
    21:00 +28°C° 0 mm 3 mps 757 mmHg 40%
    22:00 +28°C° 0 mm 3 mps 758 mmHg 43%
    23:00 +27°C° 0 mm 3 mps 758 mmHg 45%

    Tomorrow, 14 December, Friday

    Time Temperature Precipitation Wind Pressure Humidity
    00:00 +27°C° 0 mm 3 mps 758 mmHg 45%
    01:00 +27°C° 0 mm 3 mps 757 mmHg 44%
    02:00 +26°C° 0 mm 3 mps 757 mmHg 44%
    03:00 +26°C° 0 mm 3 mps 757 mmHg 42%
    04:00 +25°C° 0 mm 3 mps 757 mmHg 40%
    05:00 +25°C° 0 mm 3 mps 757 mmHg 38%
    06:00 +26°C° 0 mm 4 mps 758 mmHg 35%
    07:00 +27°C° 0 mm 4 mps 758 mmHg 32%
    08:00 +28°C° 0 mm 5 mps 759 mmHg 29%
    09:00 +32°C° 0 mm 5 mps 759 mmHg 24%
    10:00 +35°C° 0 mm 5 mps 759 mmHg 19%
    11:00 +37°C° 0 mm 5 mps 759 mmHg 14%
    12:00 +38°C° 0 mm 4 mps 758 mmHg 14%
    13:00 +40°C° 0 mm 4 mps 757 mmHg 13%
    14:00 +40°C° 0 mm 3 mps 757 mmHg 12%
    15:00 +39°C° 0 mm 3 mps 756 mmHg 14%
    16:00 +39°C° 0 mm 3 mps 756 mmHg 15%
    17:00 +38°C° 0 mm 3 mps 756 mmHg 16%
    18:00 +36°C° 0 mm 3 mps 757 mmHg 21%
    19:00 +34°C° 0 mm 3 mps 757 mmHg 25%
    20:00 +32°C° 0 mm 4 mps 758 mmHg 29%
    21:00 +30°C° 0 mm 3 mps 758 mmHg 34%
    22:00 +29°C° 0 mm 3 mps 758 mmHg 38%
    23:00 +28°C° 0 mm 2 mps 758 mmHg 42%

    Day after tomorrow, 15 December, Saturday

    Time Temperature Precipitation Wind Pressure Humidity
    00:00 +28°C° 0 mm 3 mps 758 mmHg 39%
    01:00 +28°C° 0 mm 3 mps 758 mmHg 36%
    02:00 +27°C° 0 mm 4 mps 758 mmHg 33%
    03:00 +27°C° 0 mm 4 mps 758 mmHg 27%
    04:00 +27°C° 0 mm 5 mps 758 mmHg 22%
    05:00 +27°C° 0 mm 5 mps 758 mmHg 17%
    06:00 +28°C° 0 mm 6 mps 759 mmHg 16%
    07:00 +29°C° 0 mm 6 mps 759 mmHg 15%
    08:00 +29°C° 0 mm 7 mps 760 mmHg 14%
    09:00 +32°C° 0 mm 7 mps 760 mmHg 13%
    10:00 +34°C° 0 mm 7 mps 760 mmHg 12%
    11:00 +36°C° 0 mm 7 mps 760 mmHg 11%
    12:00 +38°C° 0 mm 6 mps 759 mmHg 10%
    13:00 +39°C° 0 mm 6 mps 758 mmHg 10%
    14:00 +40°C° 0 mm 5 mps 757 mmHg 10%
    15:00 +40°C° 0 mm 4 mps 757 mmHg 11%
    16:00 +38°C° 0 mm 4 mps 757 mmHg 12%
    17:00 +37°C° 0 mm 3 mps 757 mmHg 13%
    18:00 +35°C° 0 mm 3 mps 757 mmHg 13%
    19:00 +34°C° 0 mm 4 mps 758 mmHg 14%
    20:00 +32°C° 0 mm 4 mps 759 mmHg 14%
    21:00 +32°C° 0 mm 5 mps 759 mmHg 14%
    22:00 +30°C° 0 mm 5 mps 759 mmHg 14%
    23:00 +30°C° 0 mm 6 mps 759 mmHg 14%

    16 December, Sunday

    Time Temperature Precipitation Wind Pressure Humidity
    00:00 +29°C° 0 mm 6 mps 759 mmHg 15%
    01:00 +28°C° 0 mm 6 mps 758 mmHg 15%
    02:00 +28°C° 0 mm 6 mps 758 mmHg 16%
    03:00 +27°C° 0 mm 6 mps 758 mmHg 16%
    04:00 +27°C° 0 mm 7 mps 758 mmHg 16%
    05:00 +26°C° 0 mm 7 mps 758 mmHg 16%
    06:00 +27°C° 0 mm 7 mps 758 mmHg 16%
    07:00 +27°C° 0 mm 7 mps 759 mmHg 16%
    08:00 +28°C° 0 mm 7 mps 759 mmHg 16%
    09:00 +30°C° 0 mm 6 mps 759 mmHg 14%
    10:00 +34°C° 0 mm 6 mps 759 mmHg 12%
    11:00 +38°C° 0 mm 6 mps 759 mmHg 11%
    12:00 +37°C° 0 mm 5 mps 758 mmHg 11%
    13:00 +39°C° 0 mm 5 mps 757 mmHg 11%
    14:00 +40°C° 0 mm 5 mps 756 mmHg 11%
    15:00 +39°C° 0 mm 5 mps 756 mmHg 14%
    16:00 +37°C° 0 mm 5 mps 756 mmHg 16%
    17:00 +35°C° 0 mm 5 mps 756 mmHg 19%
    18:00 +33°C° 0 mm 5 mps 757 mmHg 26%
    19:00 +32°C° 0 mm 6 mps 757 mmHg 33%
    20:00 +29°C° 0 mm 6 mps 758 mmHg 40%
    21:00 +28°C° 0 mm 6 mps 758 mmHg 37%
    22:00 +28°C° 0 mm 6 mps 758 mmHg 35%
    23:00 +27°C° 0 mm 6 mps 758 mmHg 32%

    17 December, Monday

    Time Temperature Precipitation Wind Pressure Humidity
    00:00 +27°C° 0 mm 6 mps 758 mmHg 32%
    01:00 +26°C° 0 mm 6 mps 757 mmHg 33%
    02:00 +24°C° 0 mm 6 mps 757 mmHg 33%
    03:00 +25°C° 0 mm 5 mps 757 mmHg 32%
    04:00 +23°C° 0 mm 5 mps 757 mmHg 30%
    05:00 +23°C° 0 mm 5 mps 757 mmHg 29%
    06:00 +25°C° 0 mm 5 mps 757 mmHg 25%
    07:00 +26°C° 0 mm 5 mps 758 mmHg 21%
    08:00 +27°C° 0 mm 5 mps 758 mmHg 17%
    09:00 +30°C° 0 mm 5 mps 758 mmHg 15%
    10:00 +33°C° 0 mm 5 mps 758 mmHg 13%
    11:00 +36°C° 0 mm 5 mps 758 mmHg 11%
    12:00 +37°C° 0 mm 4 mps 757 mmHg 11%
    13:00 +40°C° 0 mm 4 mps 756 mmHg 10%
    14:00 +40°C° 0 mm 3 mps 755 mmHg 10%
    15:00 +39°C° 0 mm 3 mps 755 mmHg 11%
    16:00 +38°C° 0 mm 3 mps 755 mmHg 13%
    17:00 +37°C° 0 mm 3 mps 755 mmHg 15%
    18:00 +35°C° 0 mm 3 mps 756 mmHg 20%
    19:00 +32°C° 0 mm 4 mps 756 mmHg 26%
    20:00 +29°C° 0 mm 4 mps 757 mmHg 31%
    21:00 +28°C° 0 mm 4 mps 757 mmHg 36%
    22:00 +28°C° 0 mm 4 mps 757 mmHg 40%
    23:00 +27°C° 0 mm 4 mps 757 mmHg 44%

    18 December, Tuesday

    Time Temperature Precipitation Wind Pressure Humidity
    00:00 +27°C° 0 mm 4 mps 757 mmHg 40%
    01:00 +26°C° 0 mm 3 mps 757 mmHg 36%
    02:00 +26°C° 0 mm 3 mps 756 mmHg 33%
    03:00 +25°C° 0 mm 4 mps 756 mmHg 29%
    04:00 +25°C° 0 mm 4 mps 757 mmHg 25%
    05:00 +25°C° 0 mm 4 mps 757 mmHg 21%
    06:00 +26°C° 0 mm 5 mps 757 mmHg 21%
    07:00 +27°C° 0 mm 5 mps 758 mmHg 21%
    08:00 +28°C° 0 mm 6 mps 758 mmHg 22%
    09:00 +30°C° 0 mm 6 mps 758 mmHg 19%
    10:00 +34°C° 0 mm 6 mps 758 mmHg 16%
    11:00 +38°C° 0 mm 6 mps 757 mmHg 13%
    12:00 +39°C° 0 mm 5 mps 757 mmHg 12%
    13:00 +40°C° 0 mm 4 mps 756 mmHg 11%
    14:00 +41°C° 0 mm 4 mps 755 mmHg 10%
    15:00 +39°C° 0 mm 3 mps 755 mmHg 12%
    16:00 +38°C° 0 mm 3 mps 755 mmHg 14%
    17:00 +37°C° 0 mm 3 mps 755 mmHg 16%
    18:00 +35°C° 0 mm 3 mps 756 mmHg 24%
    19:00 +31°C° 0 mm 2 mps 756 mmHg 32%
    20:00 +29°C° 0 mm 2 mps 757 mmHg 40%
    21:00 +28°C° 0 mm 2 mps 757 mmHg 46%
    22:00 +28°C° 0 mm 2 mps 757 mmHg 52%
    23:00 +27°C° 0 mm 2 mps 757 mmHg 58%
    Show more